contact:dominique.lefevre@mio.osupytheas.fr, maurice.libes@osupytheas.fr, didier.mallarino@osupytheas.fr
Project:EMSO http://www.emso-fr.org/EMSO-France
Depth: 2436.0 m
Title:EMSO Ligure Ouest : Data MII capteur MICROCAT
DateTime_Computer,Latitude,Longitude,Temperature,Conductivity,Pressure,DateTime_Instrument
DateTime_Computer,Latitude,Longitude,degC,S m-1,dbar,DateTime_Instrument
2020-02-06T00:00:33Z,42.805,6.029,13.2958,4.59960,2469.914,2020-2-06T02:01:07Z
2020-02-06T00:03:36Z,42.805,6.029,13.2960,4.59960,2469.876,2020-2-06T02:04:10Z
2020-02-06T00:06:39Z,42.805,6.029,13.2960,4.59960,2469.876,2020-2-06T02:07:13Z
2020-02-06T00:09:42Z,42.805,6.029,13.2958,4.59960,2469.9,2020-2-06T02:10:16Z
2020-02-06T00:12:45Z,42.805,6.029,13.2963,4.59961,2469.876,2020-2-06T02:13:20Z
2020-02-06T00:15:49Z,42.805,6.029,13.2964,4.59961,2469.876,2020-2-06T02:16:23Z
2020-02-06T00:18:52Z,42.805,6.029,13.2958,4.59961,2469.89,2020-2-06T02:19:26Z
2020-02-06T00:21:55Z,42.805,6.029,13.2961,4.59961,2469.886,2020-2-06T02:22:29Z
2020-02-06T00:24:58Z,42.805,6.029,13.2961,4.59961,2469.9,2020-2-06T02:25:32Z
2020-02-06T00:28:01Z,42.805,6.029,13.2961,4.59961,2469.9,2020-2-06T02:28:36Z
2020-02-06T00:31:05Z,42.805,6.029,13.2958,4.59964,2469.89,2020-2-06T02:31:39Z
2020-02-06T00:34:08Z,42.805,6.029,13.2958,4.59962,2469.9,2020-2-06T02:34:42Z
2020-02-06T00:37:11Z,42.805,6.029,13.2957,4.59961,2469.876,2020-2-06T02:37:45Z
2020-02-06T00:40:14Z,42.805,6.029,13.2961,4.59961,2469.914,2020-2-06T02:40:48Z
2020-02-06T00:43:17Z,42.805,6.029,13.2963,4.59961,2469.914,2020-2-06T02:43:52Z
2020-02-06T00:46:21Z,42.805,6.029,13.2960,4.59959,2469.876,2020-2-06T02:46:55Z
2020-02-06T00:49:24Z,42.805,6.029,13.2963,4.59961,2469.914,2020-2-06T02:49:58Z
2020-02-06T00:52:27Z,42.805,6.029,13.2959,4.59961,2469.914,2020-2-06T02:53:01Z
2020-02-06T00:55:30Z,42.805,6.029,13.2958,4.59961,2469.923,2020-2-06T02:56:04Z
2020-02-06T00:58:33Z,42.805,6.029,13.2960,4.59961,2469.923,2020-2-06T02:59:08Z
2020-02-06T01:01:37Z,42.805,6.029,13.2960,4.59961,2469.923,2020-2-06T03:02:11Z
2020-02-06T01:04:40Z,42.805,6.029,13.2963,4.59961,2469.9,2020-2-06T03:05:14Z
2020-02-06T01:07:43Z,42.805,6.029,13.2957,4.59963,2469.9,2020-2-06T03:08:17Z
2020-02-06T01:10:46Z,42.805,6.029,13.2964,4.59961,2469.89,2020-2-06T03:11:20Z
2020-02-06T01:13:49Z,42.805,6.029,13.2960,4.59961,2469.947,2020-2-06T03:14:24Z
2020-02-06T01:16:53Z,42.805,6.029,13.2963,4.59961,2469.937,2020-2-06T03:17:27Z
2020-02-06T01:19:56Z,42.805,6.029,13.2963,4.59961,2469.914,2020-2-06T03:20:30Z
2020-02-06T01:22:59Z,42.805,6.029,13.2963,4.59962,2469.9,2020-2-06T03:23:33Z
2020-02-06T01:26:02Z,42.805,6.029,13.2963,4.59960,2469.923,2020-2-06T03:26:36Z
2020-02-06T01:29:05Z,42.805,6.029,13.2961,4.59961,2469.923,2020-2-06T03:29:40Z
2020-02-06T01:32:09Z,42.805,6.029,13.2961,4.59962,2469.937,2020-2-06T03:32:43Z
2020-02-06T01:35:12Z,42.805,6.029,13.2963,4.59961,2469.947,2020-2-06T03:35:46Z
2020-02-06T01:38:15Z,42.805,6.029,13.2963,4.59962,2469.947,2020-2-06T03:38:49Z
2020-02-06T01:41:18Z,42.805,6.029,13.2961,4.59961,2469.947,2020-2-06T03:41:52Z
2020-02-06T01:44:21Z,42.805,6.029,13.2958,4.59961,2469.97,2020-2-06T03:44:56Z
2020-02-06T01:47:25Z,42.805,6.029,13.2965,4.59962,2469.97,2020-2-06T03:47:59Z
2020-02-06T01:50:28Z,42.805,6.029,13.2961,4.59961,2469.947,2020-2-06T03:51:02Z
2020-02-06T01:53:31Z,42.805,6.029,13.2963,4.59960,2469.923,2020-2-06T03:54:05Z
2020-02-06T01:56:34Z,42.805,6.029,13.2960,4.59962,2469.96,2020-2-06T03:57:08Z
2020-02-06T01:59:37Z,42.805,6.029,13.2961,4.59961,2469.937,2020-2-06T04:00:12Z
2020-02-06T02:02:40Z,42.805,6.029,13.2961,4.59963,2469.97,2020-2-06T04:03:15Z
2020-02-06T02:05:44Z,42.805,6.029,13.2962,4.59961,2469.984,2020-2-06T04:06:18Z
2020-02-06T02:08:47Z,42.805,6.029,13.2961,4.59964,2469.984,2020-2-06T04:09:21Z
2020-02-06T02:11:50Z,42.805,6.029,13.2960,4.59963,2469.947,2020-2-06T04:12:24Z
2020-02-06T02:14:53Z,42.805,6.029,13.2960,4.59963,2469.97,2020-2-06T04:15:27Z
2020-02-06T02:17:56Z,42.805,6.029,13.2961,4.59962,2469.993,2020-2-06T04:18:31Z
2020-02-06T02:21:00Z,42.805,6.029,13.2959,4.59963,2469.947,2020-2-06T04:21:34Z
2020-02-06T02:24:03Z,42.805,6.029,13.2961,4.59961,2470.007,2020-2-06T04:24:37Z
2020-02-06T02:27:06Z,42.805,6.029,13.2961,4.59961,2469.993,2020-2-06T04:27:40Z
2020-02-06T02:30:09Z,42.805,6.029,13.2960,4.59961,2469.984,2020-2-06T04:30:43Z
2020-02-06T02:33:12Z,42.805,6.029,13.2961,4.59962,2469.984,2020-2-06T04:33:47Z
2020-02-06T02:36:16Z,42.805,6.029,13.2961,4.59961,2469.97,2020-2-06T04:36:50Z
2020-02-06T02:39:19Z,42.805,6.029,13.2961,4.59963,2469.984,2020-2-06T04:39:53Z
2020-02-06T02:42:22Z,42.805,6.029,13.2965,4.59962,2470.053,2020-2-06T04:42:56Z
2020-02-06T02:45:25Z,42.805,6.029,13.2962,4.59963,2469.984,2020-2-06T04:45:59Z
2020-02-06T02:48:28Z,42.805,6.029,13.2963,4.59962,2469.97,2020-2-06T04:49:02Z
2020-02-06T02:51:31Z,42.805,6.029,13.2961,4.59962,2469.993,2020-2-06T04:52:06Z
2020-02-06T02:54:35Z,42.805,6.029,13.2961,4.59961,2469.993,2020-2-06T04:55:09Z
2020-02-06T02:57:38Z,42.805,6.029,13.2962,4.59963,2470.017,2020-2-06T04:58:12Z
2020-02-06T03:00:41Z,42.805,6.029,13.2961,4.59963,2469.97,2020-2-06T05:01:15Z
2020-02-06T03:03:44Z,42.805,6.029,13.2961,4.59962,2470.03,2020-2-06T05:04:18Z
2020-02-06T03:06:47Z,42.805,6.029,13.2962,4.59962,2469.984,2020-2-06T05:07:21Z
2020-02-06T03:09:51Z,42.805,6.029,13.2961,4.59963,2469.993,2020-2-06T05:10:25Z
2020-02-06T03:12:54Z,42.805,6.029,13.2958,4.59962,2470.007,2020-2-06T05:13:28Z
2020-02-06T03:15:57Z,42.805,6.029,13.2959,4.59962,2470.017,2020-2-06T05:16:31Z
2020-02-06T03:19:00Z,42.805,6.029,13.2959,4.59962,2470.03,2020-2-06T05:19:34Z
2020-02-06T03:22:03Z,42.805,6.029,13.2958,4.59962,2470.03,2020-2-06T05:22:37Z
2020-02-06T03:25:06Z,42.805,6.029,13.2962,4.59964,2469.993,2020-2-06T05:25:41Z
2020-02-06T03:28:10Z,42.805,6.029,13.2962,4.59963,2470.04,2020-2-06T05:28:44Z
2020-02-06T03:31:13Z,42.805,6.029,13.2965,4.59963,2470.03,2020-2-06T05:31:47Z
2020-02-06T03:34:16Z,42.805,6.029,13.2960,4.59963,2470.03,2020-2-06T05:34:50Z
2020-02-06T03:37:19Z,42.805,6.029,13.2959,4.59961,2470.063,2020-2-06T05:37:53Z
2020-02-06T03:40:22Z,42.805,6.029,13.2957,4.59963,2470.063,2020-2-06T05:40:57Z
2020-02-06T03:43:26Z,42.805,6.029,13.2960,4.59962,2470.04,2020-2-06T05:44:00Z
2020-02-06T03:46:29Z,42.805,6.029,13.2957,4.59962,2470.03,2020-2-06T05:47:03Z
2020-02-06T03:49:32Z,42.805,6.029,13.2961,4.59962,2470.053,2020-2-06T05:50:06Z
2020-02-06T03:52:35Z,42.805,6.029,13.2962,4.59961,2470.017,2020-2-06T05:53:09Z
2020-02-06T03:55:38Z,42.805,6.029,13.2961,4.59962,2470.053,2020-2-06T05:56:13Z
2020-02-06T03:58:42Z,42.805,6.029,13.2961,4.59961,2470.003,2020-2-06T05:59:16Z
2020-02-06T04:01:45Z,42.805,6.029,13.2962,4.59964,2470.017,2020-2-06T06:02:19Z
2020-02-06T04:04:48Z,42.805,6.029,13.2961,4.59963,2470.053,2020-2-06T06:05:22Z
2020-02-06T04:07:51Z,42.805,6.029,13.2959,4.59961,2470.04,2020-2-06T06:08:25Z
2020-02-06T04:10:54Z,42.805,6.029,13.2960,4.59963,2470.077,2020-2-06T06:11:29Z
2020-02-06T04:13:58Z,42.805,6.029,13.2961,4.59961,2470.04,2020-2-06T06:14:32Z
2020-02-06T04:17:01Z,42.805,6.029,13.2963,4.59963,2470.077,2020-2-06T06:17:35Z
2020-02-06T04:20:04Z,42.805,6.029,13.2958,4.59962,2470.04,2020-2-06T06:20:38Z
2020-02-06T04:23:07Z,42.805,6.029,13.2961,4.59963,2470.063,2020-2-06T06:23:41Z
2020-02-06T04:26:10Z,42.805,6.029,13.2959,4.59961,2470.063,2020-2-06T06:26:44Z
2020-02-06T04:29:13Z,42.805,6.029,13.2964,4.59961,2470.04,2020-2-06T06:29:48Z
2020-02-06T04:32:17Z,42.805,6.029,13.2961,4.59963,2470.063,2020-2-06T06:32:51Z
2020-02-06T04:35:20Z,42.805,6.029,13.2967,4.59963,2470.063,2020-2-06T06:35:54Z
2020-02-06T04:38:23Z,42.805,6.029,13.2965,4.59962,2470.087,2020-2-06T06:38:57Z
2020-02-06T04:41:26Z,42.805,6.029,13.2964,4.59961,2470.04,2020-2-06T06:42:01Z
2020-02-06T04:44:30Z,42.805,6.029,13.2961,4.59964,2470.017,2020-2-06T06:45:04Z
2020-02-06T04:47:33Z,42.805,6.029,13.2963,4.59963,2470.087,2020-2-06T06:48:07Z
2020-02-06T04:50:36Z,42.805,6.029,13.2964,4.59963,2470.087,2020-2-06T06:51:10Z
2020-02-06T04:53:39Z,42.805,6.029,13.2964,4.59963,2470.063,2020-2-06T06:54:13Z
2020-02-06T04:56:42Z,42.805,6.029,13.2958,4.59962,2470.053,2020-2-06T06:57:17Z
2020-02-06T04:59:46Z,42.805,6.029,13.2962,4.59962,2470.077,2020-2-06T07:00:20Z
2020-02-06T05:02:49Z,42.805,6.029,13.2959,4.59961,2470.087,2020-2-06T07:03:23Z
2020-02-06T05:05:52Z,42.805,6.029,13.2959,4.59962,2470.063,2020-2-06T07:06:26Z
2020-02-06T05:08:55Z,42.805,6.029,13.2962,4.59963,2470.077,2020-2-06T07:09:29Z
2020-02-06T05:11:58Z,42.805,6.029,13.2957,4.59964,2470.053,2020-2-06T07:12:33Z
2020-02-06T05:15:02Z,42.805,6.029,13.2960,4.59962,2470.077,2020-2-06T07:15:36Z
2020-02-06T05:18:05Z,42.805,6.029,13.2960,4.59963,2470.04,2020-2-06T07:18:39Z
2020-02-06T05:21:08Z,42.805,6.029,13.2964,4.59963,2470.053,2020-2-06T07:21:42Z
2020-02-06T05:24:11Z,42.805,6.029,13.2960,4.59963,2470.053,2020-2-06T07:24:45Z
2020-02-06T05:27:14Z,42.805,6.029,13.2964,4.59962,2470.053,2020-2-06T07:27:49Z
2020-02-06T05:30:17Z,42.805,6.029,13.2964,4.59961,2470.077,2020-2-06T07:30:52Z
2020-02-06T05:33:21Z,42.805,6.029,13.2964,4.59963,2470.063,2020-2-06T07:33:55Z
2020-02-06T05:36:24Z,42.805,6.029,13.2960,4.59963,2470.077,2020-2-06T07:36:58Z
2020-02-06T05:39:27Z,42.805,6.029,13.2963,4.59964,2470.04,2020-2-06T07:40:01Z
2020-02-06T05:42:30Z,42.805,6.029,13.2966,4.59961,2470.053,2020-2-06T07:43:04Z
2020-02-06T05:45:33Z,42.805,6.029,13.2961,4.59964,2470.063,2020-2-06T07:46:08Z
2020-02-06T05:48:37Z,42.805,6.029,13.2963,4.59961,2470.04,2020-2-06T07:49:11Z
2020-02-06T05:51:40Z,42.805,6.029,13.2963,4.59961,2470.04,2020-2-06T07:52:14Z
2020-02-06T05:54:43Z,42.805,6.029,13.2964,4.59964,2470.053,2020-2-06T07:55:17Z
2020-02-06T05:57:46Z,42.805,6.029,13.2967,4.59963,2470.063,2020-2-06T07:58:20Z
2020-02-06T06:00:50Z,42.805,6.029,13.2963,4.59962,2470.063,2020-2-06T08:01:24Z
2020-02-06T06:03:53Z,42.805,6.029,13.2963,4.59962,2470.063,2020-2-06T08:04:27Z
2020-02-06T06:06:56Z,42.805,6.029,13.2961,4.59962,2470.04,2020-2-06T08:07:30Z
2020-02-06T06:09:59Z,42.805,6.029,13.2961,4.59963,2470.063,2020-2-06T08:10:33Z
2020-02-06T06:13:02Z,42.805,6.029,13.2961,4.59961,2470.063,2020-2-06T08:13:36Z
2020-02-06T06:16:05Z,42.805,6.029,13.2966,4.59963,2470.04,2020-2-06T08:16:40Z
2020-02-06T06:19:09Z,42.805,6.029,13.2959,4.59962,2470.04,2020-2-06T08:19:43Z
2020-02-06T06:22:12Z,42.805,6.029,13.2961,4.59961,2470.04,2020-2-06T08:22:46Z
2020-02-06T06:25:15Z,42.805,6.029,13.2960,4.59961,2470.04,2020-2-06T08:25:49Z
2020-02-06T06:28:18Z,42.805,6.029,13.2965,4.59962,2470.063,2020-2-06T08:28:52Z
2020-02-06T06:31:21Z,42.805,6.029,13.2960,4.59964,2470.077,2020-2-06T08:31:56Z
2020-02-06T06:34:25Z,42.805,6.029,13.2961,4.59963,2470.04,2020-2-06T08:34:59Z
2020-02-06T06:37:28Z,42.805,6.029,13.2962,4.59963,2470.063,2020-2-06T08:38:02Z
2020-02-06T06:40:31Z,42.805,6.029,13.2962,4.59961,2470.04,2020-2-06T08:41:05Z
2020-02-06T06:43:34Z,42.805,6.029,13.2963,4.59963,2470.053,2020-2-06T08:44:08Z
2020-02-06T06:46:37Z,42.805,6.029,13.2962,4.59962,2470.04,2020-2-06T08:47:12Z
2020-02-06T06:49:41Z,42.805,6.029,13.2965,4.59962,2470.04,2020-2-06T08:50:15Z
2020-02-06T06:52:44Z,42.805,6.029,13.2961,4.59963,2470.077,2020-2-06T08:53:18Z
2020-02-06T06:55:47Z,42.805,6.029,13.2958,4.59964,2470.077,2020-2-06T08:56:21Z
2020-02-06T06:58:50Z,42.805,6.029,13.2964,4.59961,2470.04,2020-2-06T08:59:24Z
2020-02-06T07:01:53Z,42.805,6.029,13.2964,4.59962,2470.04,2020-2-06T09:02:27Z
2020-02-06T07:04:56Z,42.805,6.029,13.2965,4.59962,2470.04,2020-2-06T09:05:31Z
2020-02-06T07:08:00Z,42.805,6.029,13.2961,4.59962,2470.04,2020-2-06T09:08:34Z
2020-02-06T07:11:03Z,42.805,6.029,13.2961,4.59961,2470.063,2020-2-06T09:11:37Z
2020-02-06T07:14:06Z,42.805,6.029,13.2964,4.59962,2470.03,2020-2-06T09:14:40Z
2020-02-06T07:17:09Z,42.805,6.029,13.2962,4.59962,2470.053,2020-2-06T09:17:43Z
2020-02-06T07:20:12Z,42.805,6.029,13.2963,4.59962,2470.03,2020-2-06T09:20:47Z
2020-02-06T07:23:16Z,42.805,6.029,13.2964,4.59961,2470.053,2020-2-06T09:23:50Z
2020-02-06T07:26:19Z,42.805,6.029,13.2966,4.59962,2470.04,2020-2-06T09:26:53Z
2020-02-06T07:29:22Z,42.805,6.029,13.2963,4.59961,2470.017,2020-2-06T09:29:56Z
2020-02-06T07:32:25Z,42.805,6.029,13.2960,4.59962,2469.993,2020-2-06T09:32:59Z
2020-02-06T07:35:28Z,42.805,6.029,13.2960,4.59961,2470.063,2020-2-06T09:36:03Z
2020-02-06T07:38:32Z,42.805,6.029,13.2958,4.59962,2470.053,2020-2-06T09:39:06Z
2020-02-06T07:41:35Z,42.805,6.029,13.2964,4.59964,2470.03,2020-2-06T09:42:09Z
2020-02-06T07:44:38Z,42.805,6.029,13.2964,4.59961,2470.053,2020-2-06T09:45:12Z
2020-02-06T07:47:41Z,42.805,6.029,13.2958,4.59962,2470.04,2020-2-06T09:48:15Z
2020-02-06T07:50:44Z,42.805,6.029,13.2961,4.59961,2470.017,2020-2-06T09:51:19Z
2020-02-06T07:53:48Z,42.805,6.029,13.2964,4.59962,2470.053,2020-2-06T09:54:22Z
2020-02-06T07:56:51Z,42.805,6.029,13.2962,4.59961,2469.993,2020-2-06T09:57:25Z
2020-02-06T07:59:54Z,42.805,6.029,13.2961,4.59961,2470.007,2020-2-06T10:00:28Z
2020-02-06T08:02:57Z,42.805,6.029,13.2961,4.59961,2470.017,2020-2-06T10:03:31Z
2020-02-06T08:06:00Z,42.805,6.029,13.2961,4.59962,2469.993,2020-2-06T10:06:34Z
2020-02-06T08:09:03Z,42.805,6.029,13.2961,4.59961,2470.077,2020-2-06T10:09:38Z
2020-02-06T08:12:07Z,42.805,6.029,13.2960,4.59961,2470.053,2020-2-06T10:12:41Z
2020-02-06T08:15:10Z,42.805,6.029,13.2959,4.59961,2470.017,2020-2-06T10:15:44Z
2020-02-06T08:18:13Z,42.805,6.029,13.2961,4.59962,2470.017,2020-2-06T10:18:47Z
2020-02-06T08:21:16Z,42.805,6.029,13.2961,4.59961,2469.993,2020-2-06T10:21:50Z
2020-02-06T08:24:19Z,42.805,6.029,13.2961,4.59961,2470.03,2020-2-06T10:24:54Z
2020-02-06T08:27:23Z,42.805,6.029,13.2961,4.59964,2470.017,2020-2-06T10:27:57Z
2020-02-06T08:30:26Z,42.805,6.029,13.2962,4.59961,2469.993,2020-2-06T10:31:00Z
2020-02-06T08:33:29Z,42.805,6.029,13.2963,4.59961,2470.03,2020-2-06T10:34:03Z
2020-02-06T08:36:32Z,42.805,6.029,13.2959,4.59964,2469.993,2020-2-06T10:37:06Z
2020-02-06T08:39:35Z,42.805,6.029,13.2960,4.59960,2470.053,2020-2-06T10:40:10Z
2020-02-06T08:42:39Z,42.805,6.029,13.2961,4.59961,2469.993,2020-2-06T10:43:13Z
2020-02-06T08:45:42Z,42.805,6.029,13.2960,4.59961,2469.993,2020-2-06T10:46:16Z
2020-02-06T08:48:45Z,42.805,6.029,13.2960,4.59961,2470.017,2020-2-06T10:49:19Z
2020-02-06T08:51:48Z,42.805,6.029,13.2965,4.59961,2469.993,2020-2-06T10:52:22Z
2020-02-06T08:54:51Z,42.805,6.029,13.2962,4.59961,2470.017,2020-2-06T10:55:26Z
2020-02-06T08:57:55Z,42.805,6.029,13.2962,4.59961,2469.984,2020-2-06T10:58:29Z
2020-02-06T09:00:58Z,42.805,6.029,13.2967,4.59961,2469.984,2020-2-06T11:01:32Z
2020-02-06T09:04:01Z,42.805,6.029,13.2958,4.59963,2469.984,2020-2-06T11:04:35Z
2020-02-06T09:07:04Z,42.805,6.029,13.2964,4.59961,2469.97,2020-2-06T11:07:38Z
2020-02-06T09:10:07Z,42.805,6.029,13.2962,4.59961,2469.97,2020-2-06T11:10:41Z
2020-02-06T09:13:10Z,42.805,6.029,13.2964,4.59962,2469.97,2020-2-06T11:13:45Z
2020-02-06T09:16:14Z,42.805,6.029,13.2961,4.59961,2469.97,2020-2-06T11:16:48Z
2020-02-06T09:19:17Z,42.805,6.029,13.2961,4.59961,2469.993,2020-2-06T11:19:52Z
2020-02-06T09:22:21Z,42.805,6.029,13.2962,4.59961,2470.007,2020-2-06T11:22:55Z
2020-02-06T09:25:24Z,42.805,6.029,13.2964,4.59961,2469.984,2020-2-06T11:25:58Z
2020-02-06T09:28:27Z,42.805,6.029,13.2956,4.59961,2469.97,2020-2-06T11:29:01Z
2020-02-06T09:31:30Z,42.805,6.029,13.2963,4.59961,2469.97,2020-2-06T11:32:04Z
2020-02-06T09:34:33Z,42.805,6.029,13.2966,4.59961,2470.017,2020-2-06T11:35:08Z
2020-02-06T09:37:37Z,42.805,6.029,13.2965,4.59961,2469.97,2020-2-06T11:38:11Z
2020-02-06T09:40:40Z,42.805,6.029,13.2961,4.59962,2469.947,2020-2-06T11:41:14Z
2020-02-06T09:43:43Z,42.805,6.029,13.2963,4.59961,2469.97,2020-2-06T11:44:17Z
2020-02-06T09:46:46Z,42.805,6.029,13.2961,4.59961,2470.017,2020-2-06T11:47:20Z
2020-02-06T09:49:49Z,42.805,6.029,13.2964,4.59961,2470.007,2020-2-06T11:50:23Z
2020-02-06T09:52:52Z,42.805,6.029,13.2964,4.59961,2469.96,2020-2-06T11:53:27Z
2020-02-06T09:55:56Z,42.805,6.029,13.2963,4.59961,2469.984,2020-2-06T11:56:30Z
2020-02-06T09:58:59Z,42.805,6.029,13.2964,4.59961,2469.947,2020-2-06T11:59:33Z
2020-02-06T10:02:02Z,42.805,6.029,13.2960,4.59961,2469.97,2020-2-06T12:02:36Z
2020-02-06T10:05:05Z,42.805,6.029,13.2958,4.59961,2469.993,2020-2-06T12:05:39Z
2020-02-06T10:08:08Z,42.805,6.029,13.2962,4.59961,2469.96,2020-2-06T12:08:43Z
2020-02-06T10:11:12Z,42.805,6.029,13.2959,4.59962,2469.984,2020-2-06T12:11:46Z
2020-02-06T10:14:15Z,42.805,6.029,13.2963,4.59961,2469.947,2020-2-06T12:14:49Z
2020-02-06T10:17:18Z,42.805,6.029,13.2958,4.59961,2469.993,2020-2-06T12:17:52Z
2020-02-06T10:20:21Z,42.805,6.029,13.2960,4.59961,2469.947,2020-2-06T12:20:55Z
2020-02-06T10:23:24Z,42.805,6.029,13.2958,4.59961,2469.984,2020-2-06T12:23:59Z
2020-02-06T10:26:28Z,42.805,6.029,13.2960,4.59961,2469.96,2020-2-06T12:27:02Z
2020-02-06T10:29:31Z,42.805,6.029,13.2960,4.59961,2469.984,2020-2-06T12:30:05Z
2020-02-06T10:32:34Z,42.805,6.029,13.2962,4.59961,2469.937,2020-2-06T12:33:08Z
2020-02-06T10:35:37Z,42.805,6.029,13.2958,4.59963,2469.97,2020-2-06T12:36:11Z
2020-02-06T10:38:40Z,42.805,6.029,13.2962,4.59961,2469.96,2020-2-06T12:39:15Z
2020-02-06T10:41:44Z,42.805,6.029,13.2960,4.59961,2469.947,2020-2-06T12:42:18Z
2020-02-06T10:44:47Z,42.805,6.029,13.2962,4.59963,2469.97,2020-2-06T12:45:21Z
2020-02-06T10:47:50Z,42.805,6.029,13.2962,4.59962,2469.956,2020-2-06T12:48:24Z
2020-02-06T10:50:53Z,42.805,6.029,13.2961,4.59961,2469.947,2020-2-06T12:51:27Z
2020-02-06T10:53:56Z,42.805,6.029,13.2964,4.59965,2469.923,2020-2-06T12:54:31Z
2020-02-06T10:57:00Z,42.805,6.029,13.2961,4.59961,2469.97,2020-2-06T12:57:34Z
2020-02-06T11:00:03Z,42.805,6.029,13.2961,4.59962,2469.923,2020-2-06T13:00:37Z
2020-02-06T11:03:06Z,42.805,6.029,13.2964,4.59961,2469.96,2020-2-06T13:03:40Z
2020-02-06T11:06:09Z,42.805,6.029,13.2959,4.59961,2469.923,2020-2-06T13:06:43Z
2020-02-06T11:09:12Z,42.805,6.029,13.2962,4.59961,2469.937,2020-2-06T13:09:47Z
2020-02-06T11:12:16Z,42.805,6.029,13.2961,4.59961,2469.96,2020-2-06T13:12:50Z
2020-02-06T11:15:19Z,42.805,6.029,13.2958,4.59961,2469.923,2020-2-06T13:15:53Z
2020-02-06T11:18:22Z,42.805,6.029,13.2964,4.59962,2469.993,2020-2-06T13:18:56Z
2020-02-06T11:21:25Z,42.805,6.029,13.2957,4.59961,2469.993,2020-2-06T13:21:59Z
2020-02-06T11:24:28Z,42.805,6.029,13.2962,4.59962,2469.947,2020-2-06T13:25:03Z
2020-02-06T11:27:31Z,42.805,6.029,13.2958,4.59961,2469.96,2020-2-06T13:28:06Z
2020-02-06T11:30:35Z,42.805,6.029,13.2961,4.59961,2469.97,2020-2-06T13:31:09Z
2020-02-06T11:33:38Z,42.805,6.029,13.2964,4.59961,2469.937,2020-2-06T13:34:12Z
2020-02-06T11:36:41Z,42.805,6.029,13.2967,4.59963,2469.914,2020-2-06T13:37:15Z
2020-02-06T11:39:44Z,42.805,6.029,13.2962,4.59961,2469.96,2020-2-06T13:40:19Z
2020-02-06T11:42:48Z,42.805,6.029,13.2962,4.59962,2469.947,2020-2-06T13:43:22Z
2020-02-06T11:45:51Z,42.805,6.029,13.2958,4.59961,2469.947,2020-2-06T13:46:25Z
2020-02-06T11:48:54Z,42.805,6.029,13.2961,4.59961,2469.923,2020-2-06T13:49:28Z
2020-02-06T11:51:57Z,42.805,6.029,13.2964,4.59961,2469.947,2020-2-06T13:52:31Z
2020-02-06T11:55:00Z,42.805,6.029,13.2962,4.59964,2469.947,2020-2-06T13:55:35Z
2020-02-06T11:58:04Z,42.805,6.029,13.2965,4.59961,2469.947,2020-2-06T13:58:38Z
2020-02-06T12:01:07Z,42.805,6.029,13.2962,4.59962,2469.947,2020-2-06T14:01:41Z
2020-02-06T12:04:10Z,42.805,6.029,13.2961,4.59962,2469.923,2020-2-06T14:04:44Z
2020-02-06T12:07:13Z,42.805,6.029,13.2961,4.59961,2469.923,2020-2-06T14:07:47Z
2020-02-06T12:10:16Z,42.805,6.029,13.2967,4.59961,2469.9,2020-2-06T14:10:51Z
2020-02-06T12:13:20Z,42.805,6.029,13.2959,4.59960,2469.9,2020-2-06T14:13:54Z
2020-02-06T12:16:23Z,42.805,6.029,13.2957,4.59964,2469.947,2020-2-06T14:16:57Z
2020-02-06T12:19:26Z,42.805,6.029,13.2961,4.59961,2469.96,2020-2-06T14:20:00Z
2020-02-06T12:22:29Z,42.805,6.029,13.2961,4.59962,2469.923,2020-2-06T14:23:03Z
2020-02-06T12:25:32Z,42.805,6.029,13.2961,4.59961,2469.937,2020-2-06T14:26:07Z
2020-02-06T12:28:36Z,42.805,6.029,13.2963,4.59962,2469.947,2020-2-06T14:29:10Z
2020-02-06T12:31:39Z,42.805,6.029,13.2960,4.59961,2469.96,2020-2-06T14:32:13Z
2020-02-06T12:34:42Z,42.805,6.029,13.2965,4.59963,2469.923,2020-2-06T14:35:16Z
2020-02-06T12:37:45Z,42.805,6.029,13.2963,4.59961,2469.937,2020-2-06T14:38:19Z
2020-02-06T12:40:48Z,42.805,6.029,13.2960,4.59961,2469.923,2020-2-06T14:41:22Z
2020-02-06T12:43:51Z,42.805,6.029,13.2967,4.59961,2469.947,2020-2-06T14:44:26Z
2020-02-06T12:46:55Z,42.805,6.029,13.2961,4.59962,2469.937,2020-2-06T14:47:29Z
2020-02-06T12:49:58Z,42.805,6.029,13.2961,4.59961,2469.947,2020-2-06T14:50:32Z
2020-02-06T12:53:01Z,42.805,6.029,13.2957,4.59964,2469.937,2020-2-06T14:53:35Z
2020-02-06T12:56:04Z,42.805,6.029,13.2962,4.59961,2469.947,2020-2-06T14:56:38Z
2020-02-06T12:59:07Z,42.805,6.029,13.2960,4.59961,2469.96,2020-2-06T14:59:42Z
2020-02-06T13:02:11Z,42.805,6.029,13.2962,4.59961,2469.947,2020-2-06T15:02:45Z
2020-02-06T13:05:14Z,42.805,6.029,13.2964,4.59962,2469.923,2020-2-06T15:05:48Z
2020-02-06T13:08:17Z,42.805,6.029,13.2962,4.59961,2469.9,2020-2-06T15:08:51Z
2020-02-06T13:11:20Z,42.805,6.029,13.2962,4.59961,2469.937,2020-2-06T15:11:54Z
2020-02-06T13:14:23Z,42.805,6.029,13.2961,4.59961,2469.947,2020-2-06T15:14:58Z
2020-02-06T13:17:26Z,42.805,6.029,13.2963,4.59961,2469.947,2020-2-06T15:18:01Z
2020-02-06T13:20:30Z,42.805,6.029,13.2966,4.59962,2469.97,2020-2-06T15:21:04Z
2020-02-06T13:23:33Z,42.805,6.029,13.2961,4.59963,2469.937,2020-2-06T15:24:07Z
2020-02-06T13:26:36Z,42.805,6.029,13.2963,4.59962,2469.937,2020-2-06T15:27:10Z
2020-02-06T13:29:39Z,42.805,6.029,13.2962,4.59961,2469.947,2020-2-06T15:30:13Z
2020-02-06T13:32:42Z,42.805,6.029,13.2961,4.59963,2469.96,2020-2-06T15:33:17Z
2020-02-06T13:35:46Z,42.805,6.029,13.2963,4.59961,2469.947,2020-2-06T15:36:20Z
2020-02-06T13:38:49Z,42.805,6.029,13.2962,4.59961,2469.97,2020-2-06T15:39:23Z
2020-02-06T13:41:52Z,42.805,6.029,13.2959,4.59962,2469.97,2020-2-06T15:42:26Z
2020-02-06T13:44:55Z,42.805,6.029,13.2960,4.59964,2469.947,2020-2-06T15:45:29Z
2020-02-06T13:47:59Z,42.805,6.029,13.2961,4.59965,2469.947,2020-2-06T15:48:33Z
2020-02-06T13:51:02Z,42.805,6.029,13.2959,4.59962,2469.984,2020-2-06T15:51:36Z
2020-02-06T13:54:05Z,42.805,6.029,13.2964,4.59961,2469.97,2020-2-06T15:54:39Z
2020-02-06T13:57:08Z,42.805,6.029,13.2961,4.59961,2469.937,2020-2-06T15:57:42Z
2020-02-06T14:00:11Z,42.805,6.029,13.2962,4.59961,2469.984,2020-2-06T16:00:46Z
2020-02-06T14:03:15Z,42.805,6.029,13.2963,4.59962,2469.947,2020-2-06T16:03:49Z
2020-02-06T14:06:18Z,42.805,6.029,13.2962,4.59964,2469.947,2020-2-06T16:06:52Z
2020-02-06T14:09:21Z,42.805,6.029,13.2962,4.59961,2469.993,2020-2-06T16:09:55Z
2020-02-06T14:12:24Z,42.805,6.029,13.2958,4.59961,2469.97,2020-2-06T16:12:59Z
2020-02-06T14:15:28Z,42.805,6.029,13.2962,4.59961,2469.96,2020-2-06T16:16:02Z
2020-02-06T14:18:31Z,42.805,6.029,13.2961,4.59961,2469.993,2020-2-06T16:19:05Z
2020-02-06T14:21:34Z,42.805,6.029,13.2962,4.59962,2469.96,2020-2-06T16:22:08Z
2020-02-06T14:24:37Z,42.805,6.029,13.2959,4.59962,2469.947,2020-2-06T16:25:11Z
2020-02-06T14:27:40Z,42.805,6.029,13.2962,4.59964,2469.984,2020-2-06T16:28:15Z
2020-02-06T14:30:44Z,42.805,6.029,13.2959,4.59962,2469.97,2020-2-06T16:31:18Z
2020-02-06T14:33:47Z,42.805,6.029,13.2960,4.59961,2469.97,2020-2-06T16:34:21Z
2020-02-06T14:36:50Z,42.805,6.029,13.2961,4.59961,2469.947,2020-2-06T16:37:24Z
2020-02-06T14:39:53Z,42.805,6.029,13.2964,4.59962,2469.9,2020-2-06T16:40:27Z
2020-02-06T14:42:56Z,42.805,6.029,13.2962,4.59963,2469.993,2020-2-06T16:43:31Z
2020-02-06T14:46:00Z,42.805,6.029,13.2959,4.59962,2470.017,2020-2-06T16:46:34Z
2020-02-06T14:49:03Z,42.805,6.029,13.2962,4.59963,2469.993,2020-2-06T16:49:37Z
2020-02-06T14:52:06Z,42.805,6.029,13.2961,4.59962,2470.007,2020-2-06T16:52:40Z
2020-02-06T14:55:09Z,42.805,6.029,13.2966,4.59961,2469.984,2020-2-06T16:55:43Z
2020-02-06T14:58:12Z,42.805,6.029,13.2964,4.59964,2469.97,2020-2-06T16:58:47Z
2020-02-06T15:01:16Z,42.805,6.029,13.2962,4.59961,2470.007,2020-2-06T17:01:50Z
2020-02-06T15:04:19Z,42.805,6.029,13.2957,4.59961,2469.993,2020-2-06T17:04:53Z
2020-02-06T15:07:22Z,42.805,6.029,13.2962,4.59963,2469.993,2020-2-06T17:07:56Z
2020-02-06T15:10:25Z,42.805,6.029,13.2963,4.59962,2470.017,2020-2-06T17:10:59Z
2020-02-06T15:13:28Z,42.805,6.029,13.2964,4.59963,2470.007,2020-2-06T17:14:03Z